#timestamp,LO_Frequency,Hit 
1505581215.6,286046995.1,N
1505581235.4,286046997.5,N
1505581255.2,286046999.5,N
1505581275.1,286046998.4,N
1505581276.0,286046998.4,N
1505581295.8,286046998.1,N
1505581315.6,286046998.2,N
1505581335.5,286047000.6,N
1505581355.3,286047000.6,N
1505581375.1,286046998.4,N
1505581395.8,286046996.6,N
1505581415.7,286046996.8,N
1505581435.5,286046998.0,N
1505581455.3,286046996.9,N
1505581475.2,286046999.3,N
1505581495.9,286046999.6,N
1505581515.7,286046996.9,N
1505581535.6,286046996.9,N
1505581555.4,286046998.3,N
1505581575.2,286046998.8,N
1505581595.1,286046998.5,N
1505581596.0,286046998.5,N
1505581615.8,286046998.5,N
1505581635.6,286046996.9,N
1505581655.5,286046993.3,P
1505581675.3,286046999.6,N
1505581695.1,286047000.5,N
1505581715.9,286047002.8,N
1505581735.7,286046999.7,N
1505581755.5,286047001.4,N
1505581775.4,286047002.3,N
1505581795.2,286047004.3,N
1505581815.0,286047001.9,N
1505581815.9,286047001.9,N
1505581835.8,286047002.6,N
1505581855.6,286047001.9,N
1505581875.4,286047002.6,N
1505581895.2,286046998.7,N
1505581915.1,286046995.0,N
1505581916.0,286046995.0,N
1505581935.8,286046997.7,N
1505581955.6,286046996.5,N
1505581975.5,286046997.2,N
1505581995.3,286046995.9,N
1505582015.1,286046993.5,N
1505582035.9,286046996.0,N
1505582055.7,286046999.6,N
1505582075.5,286047002.7,N
1505582095.4,286046996.7,N
1505582115.2,286046996.6,N
1505582135.0,286046999.3,N
1505582135.9,286046999.3,N
1505582155.8,286047001.1,N
1505582175.6,286047002.5,N
1505582195.4,286047001.7,N
1505582215.2,286047002.3,N
1505582235.1,286047002.1,N
1505582236.0,286047002.1,N
1505582255.8,286047004.4,N
1505582275.6,286047004.7,N
1505582295.5,286047007.5,N
1505582315.3,286047005.1,N
1505582335.1,286047004.2,N
1505582355.9,286046999.8,N
1505582375.7,286046998.2,N
1505582395.5,286047001.2,N
1505582415.4,286047004.1,N
1505582435.2,286047001.4,N
1505582455.0,286047001.8,N
1505582455.9,286047001.8,N
1505582475.8,286047002.8,N
1505582495.6,286047002.5,N
1505582515.4,286047004.0,N
1505582535.3,286047006.0,N
1505582555.1,286047005.8,N
1505582556.0,286047005.8,N
1505582575.8,286047002.9,N
1505582595.7,286046998.7,N
1505582615.5,286047000.5,N
1505582635.3,286047000.0,N
1505582655.1,286047002.2,N
1505582675.9,286047001.5,N
1505582695.7,286047008.8,P
1505582715.6,286047004.7,N
1505582735.4,286047008.1,P
1505582755.2,286047006.1,N
1505582775.0,286047006.3,N
1505582776.0,286047006.3,P
1505582795.8,286047002.5,P
1505582815.6,286047002.7,N
1505582835.5,286046999.0,N
1505582855.3,286046995.8,N
1505582875.1,286046993.8,N
1505582895.8,286046993.7,N
1505582915.7,286046993.9,N
1505582935.5,286046991.3,N
1505582955.3,286046985.4,N
1505582975.2,286046989.4,N
1505582995.9,286046987.9,N
1505583015.7,286046989.7,N
1505583035.6,286046989.8,N
1505583055.4,286046992.7,N
1505583075.2,286046993.2,N
1505583095.1,286046991.7,N
1505583096.0,286046991.7,N
1505583115.8,286046997.3,N
1505583135.6,286046999.0,N
1505583155.4,286046999.2,N
1505583175.3,286046997.1,N
1505583195.1,286046997.8,N
1505583215.8,286046997.0,N
1505583235.7,286046998.1,N
1505583255.5,286046998.2,N
1505583275.3,286047000.6,N
1505583295.2,286047002.8,N
1505583315.9,286047000.0,N
1505583335.7,286047000.9,N
1505583355.6,286046996.8,N
1505583375.4,286047004.4,N
1505583395.2,286047004.0,N
1505583415.1,286046998.5,N
1505583416.0,286046998.5,N
1505583435.8,286046995.1,N
1505583455.6,286047000.1,N
1505583475.5,286046995.5,N
1505583495.3,286046995.8,N
1505583515.1,286046997.0,N
1505583535.8,286047002.3,N
1505583555.7,286047001.7,N
1505583575.5,286047000.7,N
1505583595.3,286047003.2,N
1505583615.2,286047002.9,N
1505583635.9,286047000.9,N
1505583655.7,286046995.5,N
1505583675.6,286046993.8,N
1505583695.4,286046999.5,N
1505583715.2,286046995.4,N
1505583735.1,286046996.1,N
1505583736.0,286046996.1,N
1505583755.8,286046994.2,N
1505583775.6,286046995.4,N
1505583795.5,286046998.7,N
1505583815.3,286047004.3,N
1505583835.1,286047006.7,N
1505583855.9,286047008.6,N
1505583875.7,286047008.5,N
1505583895.5,286047005.0,N
1505583915.3,286047003.4,N
1505583935.2,286047003.6,N
1505583955.0,286046999.7,N
1505583955.9,286046999.7,N
1505583975.7,286047001.6,N
1505583995.6,286047001.5,N
1505584015.4,286047003.2,N
1505584035.2,286047004.2,N
1505584055.1,286047000.1,N
1505584056.0,286047000.1,N
1505584075.8,286046999.4,N
1505584095.6,286047001.2,N
1505584115.5,286046998.3,N
1505584135.3,286047000.6,N
1505584155.1,286047001.9,N
1505584175.9,286047001.7,N
1505584195.7,286047000.1,N
1505584215.5,286047000.3,N
1505584235.4,286047004.4,N
1505584255.2,286047002.6,N
1505584275.0,286047001.5,N
1505584275.9,286047001.5,N
1505584295.8,286047000.2,N
1505584315.6,286047003.3,N
1505584335.4,286047007.6,N
1505584355.2,286047004.8,N
1505584375.1,286047003.4,N
1505584376.0,286047003.4,N
1505584395.8,286047004.9,N
1505584415.6,286047003.1,N
1505584435.5,286047003.3,N
1505584455.3,286047003.6,N
1505584475.1,286047003.1,N
1505584495.9,286047002.5,N
1505584515.7,286047003.6,N
1505584535.5,286047005.9,P
1505584555.4,286047007.4,P
1505584575.2,286047006.6,P
1505584595.0,286047011.7,P
1505584596.0,286047011.7,P
1505584615.8,286047007.2,N
1505584635.6,286047003.8,N
1505584655.4,286047000.0,N
1505584675.3,286046998.2,N
1505584695.1,286047001.1,N
1505584715.8,286047001.1,N
1505584735.7,286047001.2,N
1505584755.5,286046998.5,N
1505584775.3,286046998.8,N
1505584795.2,286046996.6,N
